Current weather by "City, St" or "zip code"  
 

Current Conditions: Danville, Vermilion County Airport, IL

Fair


55.0 F

Last Updated on Sep 22 2020, 9:55 pm CDT
Humidity: 99%
Wind Speed: N 0.0 mph
Barometer 30.14 in
Dewpoint: 54.3 F
Visibility: 10.00 mi
Precip: --
Heat Index: NA
Wind Chill: NA
Current conditions at:

Danville, Vermilion County Airport, IL (KDNV)

Lat: 40.19944 Lon: 87.59556

Local Radar Image active severe weather and emergency alerts image image weather storm and storm spotter reports image weather observation monitoring service image
Local
Radar
Active
Alerts
Storm Reports Obs
Monitoring

Sign-up For Email & Text Message Weather Alert Notification Services



Advertise Here

Observation History for Danville, Vermilion County Airport, IL


Time Wind
(mph)
Vis
(mi)
Weather Precip (in) Temperature (F) Relative
Humidity
Wind
Chill
(F)
Heat
Index
(F)
Pressure
Air Dwpt altimeter
(in)
sea level
(mb)
Rmks
9:55 pm CDT N 0.0 10.00 Fair -- 55.0 54.3 99% NA NA 30.14 M
8:55 pm CDT N 0.0 10.00 Fair -- 57.0 55.6 96% NA NA 30.14 M
7:55 pm CDT N 0.0 10.00 Fair -- 59.0 57.7 94% NA NA 30.14 M
6:55 pm CDT N 0.0 10.00 Fair -- 64.0 59.4 85% NA NA 30.14 M
5:55 pm CDT N 0.0 10.00 Fair -- 73.0 55.9 56% NA NA 30.13 M
4:55 pm CDT SW 4.6 10.00 Fair -- 75.0 53.1 46% NA NA 30.14 M
3:55 pm CDT SW 6.9 10.00 Fair -- 76.0 53.6 45% NA NA 30.15 M
2:55 pm CDT W 3.5 10.00 Fair -- 76.0 54.3 47% NA NA 30.17 M
1:55 pm CDT N 0.0 10.00 Fair -- 75.0 54.3 49% NA NA 30.19 M
12:55 pm CDT SW 4.6 10.00 Fair -- 74.0 55.2 52% NA NA 30.23 M
11:55 am CDT W 3.5 10.00 Fair -- 72.0 57.2 59% NA NA 30.25 M
10:55 am CDT W 3.5 10.00 Fair -- 69.0 57.0 66% NA NA 30.27 M
9:55 am CDT N 0.0 10.00 Fair -- 64.0 55.9 75% NA NA 30.28 M
8:55 am CDT S 3.5 10.00 Fair -- 58.0 54.7 88% NA NA 30.28 M
7:55 am CDT N 0.0 10.00 Fair -- 52.0 51.6 99% NA NA 30.28 M
6:55 am CDT N 0.0 10.00 Fair -- 47.0 46.6 99% NA NA 30.28 M
5:55 am CDT N 0.0 10.00 Fair -- 47.0 46.9 99% NA NA 30.27 M
4:55 am CDT N 0.0 10.00 Fair -- 47.0 46.9 99% NA NA 30.27 M
3:55 am CDT N 0.0 10.00 Fair -- 47.0 46.9 99% NA NA 30.26 M
2:55 am CDT N 0.0 10.00 Fair -- 48.0 47.8 98% NA NA 30.26 M
1:55 am CDT N 0.0 10.00 Fair -- 49.0 48.2 97% NA NA 30.27 M
12:55 am CDT N 0.0 10.00 Fair -- 49.0 48.2 99% NA NA 30.27 M
11:55 pm CDT N 0.0 10.00 Fair -- 49.0 48.4 97% NA NA 30.28 M
10:55 pm CDT N 0.0 10.00 Fair -- 50.0 49.1 97% NA NA 30.29 M

Regional Weather Observation


Rantoul National Aviation Center Airport, IL (KTIP)

Fair
58.0 F

University of Illinois - Willard, IL (KCMI)

Fair
57.0 F

Rensselaer Jasper County Airport, IN (KRZL)

Fair
59.0 F

Pontiac Municipal Airport, IL (KPNT)

Fair
55.0 F

Bloomington/Normal, Central Illinois Regional Airport at Bloomington-Normal, IL (KBMI)

Fair
59.0 F

Lafayette, Purdue University Airport, IN (KLAF)

Fair
60.0 F